East Quogue, NY

5:28 AM EST on February 21, 2017 (GMT -0500)
The Gabreski

Weather History for KFOK - February, 2014

Change the Weather History Date:

Wednesday, February 5, 2014

  Actual Average Record
Temperature  
Mean Temperature 32 °F -  
Max Temperature 35 °F 37 °F 55 °F (2006)
Min Temperature 28 °F 20 °F 7 °F (2009)
Degree Days  
Heating Degree Days 34    
Moisture  
Dew Point 28 °F    
Average Humidity 86    
Maximum Humidity 93    
Minimum Humidity 75    
Precipitation  
Precipitation 0.84 in - - ()
Sea Level Pressure  
Sea Level Pressure 29.90 in    
Wind  
Wind Speed 10 mph (NNE)    
Max Wind Speed 22 mph    
Max Gust Speed 26 mph    
Visibility 4 miles    
Events Rain , Snow    
Averages and records for this station are not official NWS values.
T = Trace of Precipitation, MM = Missing Value Source: NWS Daily Summary

Daily Weather History Graph

Daily Weather History Graph

Search for Another Location

Airport or City:

Trip Planner

Search our weather history database for the weather conditions in past years. The results will help you decide how hot, cold, wet, or windy it might be!

Date:

Astronomy

Feb. 05, 2014 Rise Set
Actual Time 6:56 AM EST 5:12 PM EST
Civil Twilight 6:27 AM EST 5:41 PM EST
Nautical Twilight 5:55 AM EST 6:14 PM EST
Astronomical Twilight 5:23 AM EST 6:46 PM EST
Moon 10:06 AM EST (2/5) No Moon Set
Length of Visible Light 11h 13m
Length of Day
10h 16m
Waxing Crescent, 39% of the Moon is Illuminated
Feb 5
Waxing Crescent
Feb 6
First Quarter
Feb 14
Full
Feb 22
Last Quarter
Mar 1
New

Hourly Weather History & Observations

Time (EST) Temp. Windchill Dew Point Humidity Pressure Visibility Wind Dir Wind Speed Gust Speed Precip Events Conditions
12:01 AM 30.2 °F 24.3 °F 24.8 °F 80% 30.30 in 10.0 mi ENE 5.8 mph - N/A   Overcast
12:50 AM 30.2 °F 25.4 °F 23.0 °F 75% 30.26 in 10.0 mi ENE 4.6 mph - N/A   Overcast
12:53 AM 30.0 °F 25.2 °F 23.0 °F 75% 30.26 in 10.0 mi ENE 4.6 mph - N/A   Overcast
1:53 AM 30.0 °F 21.7 °F 23.0 °F 75% 30.24 in 10.0 mi NNE 9.2 mph - 0.00 in   Overcast
2:25 AM 30.2 °F 21.9 °F 23.0 °F 75% 30.20 in 2.0 mi NE 9.2 mph - 0.01 in Snow Light Snow
2:29 AM 30.2 °F 21.9 °F 23.0 °F 75% 30.20 in 1.8 mi NE 9.2 mph - 0.01 in Snow Light Snow
2:36 AM 30.2 °F 21.3 °F 24.8 °F 80% 30.19 in 2.0 mi NE 10.4 mph - 0.02 in Snow Light Snow
2:53 AM 30.0 °F 22.4 °F 25.0 °F 82% 30.19 in 3.0 mi NE 8.1 mph - 0.03 in   Overcast
3:16 AM 30.2 °F 20.8 °F 26.6 °F 86% 30.17 in 2.0 mi NE 11.5 mph - 0.02 in Snow Light Snow
3:24 AM 30.2 °F 20.8 °F 26.6 °F 86% 30.17 in 1.5 mi NE 11.5 mph - 0.03 in Snow Light Snow
3:53 AM 30.9 °F 21.2 °F 27.0 °F 85% 30.16 in 1.2 mi NE 12.7 mph - 0.07 in Snow Light Snow
4:06 AM 30.2 °F 20.2 °F 26.6 °F 86% 30.16 in 0.8 mi NE 12.7 mph - 0.03 in Snow Light Snow
4:15 AM 30.2 °F 21.3 °F 26.6 °F 86% 30.16 in 1.2 mi NE 10.4 mph - 0.06 in Snow Light Snow
4:53 AM 30.9 °F 22.8 °F 28.0 °F 89% 30.11 in 1.5 mi ENE 9.2 mph - 0.12 in Snow Light Snow
5:16 AM 32.0 °F 26.4 °F 28.4 °F 87% 30.10 in 2.5 mi ENE 5.8 mph - 0.06 in   Overcast
5:22 AM 32.0 °F 23.6 °F 28.4 °F 87% 30.09 in 3.0 mi East 10.4 mph - 0.08 in Rain Light Freezing Rain
5:37 AM 32.0 °F 24.8 °F 28.4 °F 87% 30.07 in 2.5 mi ENE 8.1 mph - 0.11 in Rain Light Freezing Rain
5:53 AM 33.1 °F 27.7 °F 30.0 °F 89% 30.07 in 2.5 mi Variable 5.8 mph - 0.14 in Rain Light Freezing Rain
6:26 AM 33.8 °F 27.0 °F 30.2 °F 87% 30.04 in 2.5 mi ENE 8.1 mph - 0.06 in Rain Light Freezing Rain
6:53 AM 34.0 °F 27.2 °F 30.9 °F 89% 30.01 in 2.0 mi NE 8.1 mph - 0.08 in Rain Light Rain
7:23 AM 33.8 °F 24.8 °F 30.2 °F 87% 30.00 in 3.0 mi NNE 12.7 mph - 0.03 in Rain Light Rain
7:51 AM 33.8 °F 23.5 °F 30.2 °F 87% 30.00 in 1.0 mi NNE 16.1 mph - 0.05 in Rain Light Rain
7:53 AM 33.1 °F 22.6 °F 30.9 °F 92% 30.01 in 1.0 mi NNE 16.1 mph - 0.05 in Rain Rain
8:00 AM 33.8 °F 23.9 °F 30.2 °F 87% 30.00 in 0.8 mi NNE 15.0 mph - 0.02 in Rain Light Freezing Rain
8:21 AM 33.8 °F 23.2 °F 30.2 °F 87% 29.97 in 1.0 mi NNE 17.3 mph - 0.04 in Rain Light Rain
8:38 AM 32.0 °F 19.5 °F 30.2 °F 93% 29.95 in 1.2 mi NNE 21.9 mph 25.3 mph 0.08 in Rain Light Freezing Rain
8:53 AM 32.0 °F 20.8 °F 30.0 °F 92% 29.97 in 1.8 mi NNE 17.3 mph 26.5 mph 0.11 in Rain Light Freezing Rain
9:00 AM 32.0 °F 21.2 °F 30.2 °F 93% 29.96 in 0.8 mi NNE 16.1 mph - 0.01 in Rain Light Freezing Rain
9:15 AM 32.0 °F 22.5 °F 28.4 °F 87% 29.98 in 0.8 mi NNE 12.7 mph 23.0 mph 0.04 in   Overcast
9:25 AM 32.0 °F 21.6 °F 28.4 °F 87% 29.95 in 1.0 mi NE 15.0 mph 24.2 mph 0.06 in   Overcast
9:33 AM 32.0 °F 20.5 °F 28.4 °F 87% 29.93 in 2.5 mi NE 18.4 mph 26.5 mph 0.07 in Rain Light Freezing Rain
9:38 AM 32.0 °F 21.2 °F 30.2 °F 93% 29.90 in 2.5 mi ENE 16.1 mph 26.5 mph 0.07 in Rain Light Freezing Rain
9:45 AM 32.0 °F 23.6 °F 30.2 °F 93% 29.89 in 3.0 mi ENE 10.4 mph 24.2 mph 0.08 in Rain Light Freezing Rain
9:53 AM 32.0 °F 23.6 °F 30.0 °F 92% 29.88 in 5.0 mi ENE 10.4 mph 18.4 mph 0.08 in Rain Light Freezing Rain
10:48 AM 33.8 °F 26.4 °F 30.2 °F 87% 29.80 in 8.0 mi ENE 9.2 mph - 0.02 in Rain Light Rain
10:53 AM 33.1 °F 25.5 °F 30.9 °F 92% 29.80 in 9.0 mi ENE 9.2 mph 19.6 mph 0.02 in Rain Light Rain
11:53 AM 34.0 °F 23.0 °F 30.0 °F 85% 29.68 in 10.0 mi ENE 18.4 mph 24.2 mph 0.02 in Rain Light Rain
12:29 PM 33.8 °F 24.8 °F 30.2 °F 87% 29.67 in 1.8 mi ENE 12.7 mph 18.4 mph 0.04 in Rain Rain
12:44 PM 33.8 °F 26.4 °F 30.2 °F 87% 29.64 in 3.0 mi ENE 9.2 mph - 0.07 in Rain Light Rain
12:53 PM 34.0 °F 25.0 °F 30.9 °F 89% 29.64 in 3.0 mi ENE 12.7 mph 19.6 mph 0.08 in Rain Rain
1:13 PM 33.8 °F 25.8 °F 32.0 °F 93% 29.65 in 4.0 mi NE 10.4 mph - 0.02 in Rain Light Rain
1:53 PM 34.0 °F 28.0 °F 30.9 °F 89% 29.63 in 9.0 mi NE 6.9 mph - 0.02 in Rain Light Rain
2:53 PM 34.0 °F 26.0 °F 30.9 °F 89% 29.65 in 2.0 mi NNE 10.4 mph - 0.01 in Rain Light Rain
2:55 PM 33.8 °F 25.8 °F 30.2 °F 87% 29.65 in 1.8 mi North 10.4 mph - 0.00 in Rain Light Rain
3:04 PM 33.8 °F 24.8 °F 30.2 °F 87% 29.63 in 1.8 mi NNE 12.7 mph - 0.01 in Rain Light Rain
3:12 PM 33.8 °F 26.4 °F 30.2 °F 87% 29.62 in 2.5 mi NNE 9.2 mph - 0.01 in Rain Light Rain
3:19 PM 33.8 °F 27.0 °F 32.0 °F 93% 29.62 in 4.0 mi NNE 8.1 mph - 0.01 in Rain Light Rain
3:26 PM 35.6 °F 28.6 °F 32.0 °F 87% 29.62 in 5.0 mi North 9.2 mph - 0.01 in   Overcast
3:53 PM 35.1 °F 27.9 °F 30.9 °F 85% 29.63 in 4.0 mi NNE 9.2 mph - 0.01 in   Overcast
4:12 PM 33.8 °F 27.0 °F 30.2 °F 87% 29.62 in 2.5 mi North 8.1 mph - N/A   Overcast
4:30 PM 33.8 °F 27.7 °F 30.2 °F 87% 29.63 in 2.5 mi North 6.9 mph - N/A   Overcast
4:53 PM 34.0 °F 26.6 °F 30.0 °F 85% 29.63 in 3.0 mi North 9.2 mph - N/A   Overcast
5:53 PM 33.1 °F 24.4 °F 30.0 °F 89% 29.67 in 6.0 mi NNW 11.5 mph - N/A   Overcast
6:24 PM 32.0 °F 22.5 °F 28.4 °F 87% 29.71 in 6.0 mi NW 12.7 mph - N/A   Overcast
6:53 PM 32.0 °F 23.6 °F 28.0 °F 85% 29.72 in 9.0 mi North 10.4 mph - N/A   Overcast
7:41 PM 30.2 °F 21.3 °F 26.6 °F 86% 29.75 in 10.0 mi NNW 10.4 mph - N/A   Overcast
7:53 PM 30.9 °F 21.7 °F 27.0 °F 85% 29.76 in 10.0 mi NW 11.5 mph - N/A   Overcast
8:08 PM 30.2 °F 20.2 °F 26.6 °F 86% 29.77 in 10.0 mi NW 12.7 mph - N/A   Overcast
8:45 PM 30.2 °F 20.8 °F 26.6 °F 86% 29.79 in 2.5 mi NNW 11.5 mph - 0.00 in Snow Light Snow
8:53 PM 30.0 °F 21.1 °F 26.1 °F 85% 29.80 in 4.0 mi NNW 10.4 mph - 0.00 in Snow Light Snow
9:03 PM 30.2 °F 21.3 °F 26.6 °F 86% 29.80 in 8.0 mi NNW 10.4 mph - N/A   Overcast
9:10 PM 30.2 °F 21.9 °F 26.6 °F 86% 29.81 in 8.0 mi NNW 9.2 mph - N/A   Overcast
9:34 PM 30.2 °F 22.6 °F 26.6 °F 86% 29.82 in 6.0 mi NW 8.1 mph - N/A   Overcast
9:53 PM 30.0 °F 23.2 °F 26.1 °F 85% 29.83 in 10.0 mi NW 6.9 mph - N/A   Overcast
10:53 PM 30.0 °F 21.1 °F 25.0 °F 82% 29.88 in 10.0 mi NNW 10.4 mph - N/A   Overcast
11:06 PM 30.2 °F 20.2 °F 24.8 °F 80% 29.89 in 10.0 mi NNW 12.7 mph - N/A   Overcast
11:45 PM 28.4 °F 17.5 °F 24.8 °F 86% 29.93 in 10.0 mi NNW 13.8 mph 19.6 mph N/A   Mostly Cloudy
11:53 PM 28.9 °F 18.2 °F 23.0 °F 78% 29.94 in 10.0 mi NNW 13.8 mph - N/A   Mostly Cloudy